Regional Weather Roundup
Issued by NWS

Home | Current Version | Previous Version | Graphics & Text | Print | Product List | Glossary Off
Versions: 1 2 3 4 5 6 7 8 9 10 11 12 13 14 15 16 17 18 19 20 21 22 23 24 25 26 27 28 29 30 31 32 33 34 35 36 37 38 39 40 41 42 43 44 45 46 47 48 49 50

000
ASUS43 KLMK 161410
RWRKY
KENTUCKY REGIONAL WEATHER ROUNDUP
NATIONAL WEATHER SERVICE LOUISVILLE KY
1000 AM EDT TUE SEP 16 2014

NOTE "FAIR" INDICATES FEW OR NO CLOUDS BELOW 12,000 FEET
WITH NO SIGNIFICANT WEATHER AND/OR OBSTRUCTIONS TO VISIBILITY.

KYZ001>023-026-027-061>063-070>075-161500-
WESTERN AND SOUTH CENTRAL KENTUCKY

CITY           SKY/WX    TMP DP  RH WIND       PRES   REMARKS
PADUCAH        CLOUDY    64  55  72 NE9       30.18R
HENDERSON      CLOUDY    61  54  77 N7        30.19R
OWENSBORO      CLOUDY    61  58  90 N10       30.17S
HOPKINSVILLE   CLOUDY    63  63 100 N9        30.16R
BOWLING GREEN  CLOUDY    65  61  87 NW7       30.15R
GLASGOW        CLOUDY    65  63  93 CALM      30.13S
$$

KYZ024-025-028>034-038-045-046-053-161500-
NORTH CENTRAL KENTUCKY

CITY           SKY/WX    TMP DP  RH WIND       PRES   REMARKS
LOUISVILLE/SDF CLOUDY    62  57  83 N12       30.16R
LOUISVILLE/LOU CLOUDY    61  57  87 N9        30.16R
FORT KNOX      CLOUDY    61  58  90 N5        30.15R
$$

KYZ035>037-039>044-047>052-055>060-089>105-161500-
NORTHEAST KENTUCKY

CITY           SKY/WX    TMP DP  RH WIND       PRES   REMARKS
LEXINGTON      CLOUDY    63  58  83 NE7       30.14R
COVINGTON      CLOUDY    57  53  86 N9        30.17R
FRANKFORT      CLOUDY    61  58  90 N8        30.14R
$$

KYZ054-064>069-076>088-106>120-161500-
SOUTHEAST KENTUCKY

CITY           SKY/WX    TMP DP  RH WIND       PRES   REMARKS
JACKSON        FOG       63  61  93 CALM      30.11F VSB 1/2
LONDON         CLOUDY    66  61  84 W7        30.12S
SOMERSET       NOT AVBL
MIDDLESBORO    CLOUDY    67  63  87 CALM      30.12S
MONTICELLO     CLOUDY    67  65  93 CALM      30.14S FOG
$$




USA.gov is the U.S. government's official web portal to all federal, state and local government web resources and services.